Newton, KS

7:36 PM CST on November 15, 2019 (GMT -0600)
Newton City County

Weather History for KEWK - August, 2019

Change the Weather History Date:

Wednesday, August 7, 2019

  Actual Average Record
Temperature  
Mean Temperature 78 °F -  
Max Temperature 84 °F 86 °F 100 °F (2007)
Min Temperature 73 °F 65 °F 53 °F (1997)
Cooling Degree Days 14    
Growing Degree Days 28 (Base 50)    
Moisture  
Dew Point 70 °F    
Average Humidity 77    
Maximum Humidity 93    
Minimum Humidity 58    
Precipitation  
Precipitation 0.00 in - - ()
Sea Level Pressure  
Sea Level Pressure 29.89 in    
Wind  
Wind Speed 10 mph (ESE)    
Max Wind Speed 17 mph    
Max Gust Speed 25 mph    
Visibility 10 miles    
Events Thunderstorm    
Averages and records for this station are not official NWS values.
T = Trace of Precipitation, MM = Missing Value Source: NWS Daily Summary

Daily Weather History Graph

Daily Weather History Graph

Search for Another Location

Airport or City:

Astronomy

Aug. 07, 2019 Rise Set
Actual Time 6:37 AM CDT 8:32 PM CDT
Civil Twilight 6:08 AM CDT 9:00 PM CDT
Nautical Twilight 5:33 AM CDT 9:35 PM CDT
Astronomical Twilight 4:55 AM CDT 10:13 PM CDT
Moon 2:03 PM CDT (8/7) 12:25 AM CDT (8/7)
Length of Visible Light 14h 52m
Length of Day
13h 55m
Waxing Crescent, 50% of the Moon is Illuminated
Aug 7
Waxing Crescent
Aug 7
First Quarter
Aug 15
Full
Aug 23
Last Quarter
Aug 30
New

Hourly Weather History & Observations

Time (CDT) Temp. Heat Index Dew Point Humidity Pressure Visibility Wind Dir Wind Speed Gust Speed Precip Events Conditions
12:56 AM 75.0 °F - 72.0 °F 90% 29.86 in 10.0 mi SE 8.1 mph - N/A   Unknown
1:56 AM 73.0 °F - 71.1 °F 93% 29.86 in 10.0 mi SE 6.9 mph - N/A   Unknown
2:56 AM 73.0 °F - 71.1 °F 93% 29.84 in 10.0 mi SSE 6.9 mph - N/A   Unknown
3:56 AM 73.0 °F - 71.1 °F 93% 29.84 in 10.0 mi South 6.9 mph - N/A   Unknown
4:56 AM 73.0 °F - 71.1 °F 93% 29.84 in 10.0 mi South 8.1 mph - N/A   Unknown
6:56 AM 75.0 °F - 71.1 °F 87% 29.83 in 10.0 mi SSW 9.2 mph - N/A   Clear
7:56 AM 75.0 °F - 71.1 °F 87% 29.89 in 10.0 mi Variable 4.6 mph - N/A   Mostly Cloudy
8:56 AM 73.0 °F - 68.0 °F 84% 29.93 in 10.0 mi NE 15.0 mph 20.7 mph N/A   Clear
9:56 AM 75.0 °F - 66.9 °F 76% 29.93 in 10.0 mi East 15.0 mph 21.9 mph N/A   Unknown
10:56 AM 77.0 °F - 66.9 °F 71% 29.92 in 10.0 mi East 12.7 mph 21.9 mph N/A   Unknown
12:56 PM 82.9 °F 86.5 °F 69.1 °F 63% 29.94 in 10.0 mi ESE 16.1 mph 20.7 mph N/A   Unknown
1:56 PM 84.0 °F 87.0 °F 68.0 °F 58% 29.92 in 10.0 mi ESE 13.8 mph 25.3 mph N/A   Clear
2:56 PM 84.0 °F 87.8 °F 69.1 °F 61% 29.92 in 10.0 mi ESE 17.3 mph 23.0 mph N/A   Clear
3:56 PM 84.9 °F 88.8 °F 69.1 °F 59% 29.89 in 10.0 mi SE 17.3 mph - N/A   Clear
4:56 PM 84.9 °F 90.1 °F 71.1 °F 63% 29.88 in 10.0 mi SE 9.2 mph - N/A   Clear
5:56 PM 84.9 °F 90.1 °F 71.1 °F 63% 29.88 in 10.0 mi ESE 12.7 mph - N/A   Clear
6:56 PM 84.0 °F 88.4 °F 70.0 °F 63% 29.86 in 10.0 mi ESE 10.4 mph - N/A   Clear
7:56 PM 82.0 °F 86.3 °F 71.1 °F 69% 29.87 in 10.0 mi ESE 8.1 mph - N/A   Clear
8:56 PM 80.1 °F 83.8 °F 72.0 °F 76% 29.88 in 10.0 mi ESE 10.4 mph - N/A   Partly Cloudy
10:56 PM 75.0 °F - 70.0 °F 84% 29.90 in 10.0 mi East 9.2 mph - N/A   Partly Cloudy
11:15 PM 75.2 °F - 69.8 °F 83% 29.90 in 10.0 mi ESE 10.4 mph - N/A Thunderstorm Scattered Clouds
11:43 PM 75.2 °F - 69.8 °F 83% 29.91 in 10.0 mi East 4.6 mph - N/A   Clear
11:56 PM 75.0 °F - 69.1 °F 82% 29.92 in 10.0 mi ENE 6.9 mph - N/A   Clear